Preview of NWS' New Version of Forecast
This preview is not operational and should not be used for support decisions.

Regional Weather Roundup (RWR)

Issued by National Weather Service (NWS)

                            
000
ASUS42 KTBW 221216
RWRFL 
FLORIDA REGIONAL WEATHER ROUNDUP
NATIONAL WEATHER SERVICE TAMPA BAY RUSKIN FL
800 AM EDT MON APR 22 2019

NOTE: "FAIR" INDICATES FEW OR NO CLOUDS BELOW 12,000 FEET WITH NO
SIGNIFICANT WEATHER AND/OR OBSTRUCTIONS TO VISIBILITY.

FLZ001>010-012>015-112-114-115-221300-
PANHANDLE FLORIDA
  
CITY           SKY/WX    TMP DP  RH WIND       PRES   REMARKS
PENSACOLA      FAIR      53  52  96 CALM      30.20R                  
PENSACOLA NAS  FAIR      51  51 100 CALM      30.20R                  
MILTON NAS     FAIR      46  46 100 CALM      30.20R                  
CRESTVIEW      FAIR      45  42  89 CALM      30.22R                  
DUKE FIELD     FAIR      46  45  96 CALM      30.20R                  
VALPARAISO     FAIR      52  47  83 CALM      30.20R                  
MARY ESTHER    FAIR      51  47  87 N6        30.19R                  
PANAMA CITY    FAIR      50  47  89 CALM      30.19R                  
TYNDALL AFB    FAIR      53  51  94 CALM      30.20R                  
APALACHICOLA   FAIR      50  48  93 N3        30.19R                  

STATION/POSITION SKY/WX   TEMP    WIND        PRES    WAVE   SWELL
                          AIR SEA DIR/SP/G            HT/PER HT/PER
                          (F)     (DEG/KT/KT) (MB)    (FT/S) (FT/S)
30.1N   87.6W                                 1022.6R   1
29.2N   88.2W                      80/  8/  8 1022.4R   1
PANAMA CITY BEAC           56 68   30/  4/  6 1022.8R
TOWER C          NOT AVBL

$$
FLZ011-016>038-118-127-128-134-139-239-221300-
NORTH FLORIDA
  
CITY           SKY/WX    TMP DP  RH WIND       PRES   REMARKS
MARIANNA       FAIR      52  49  89 CALM      30.19R                  
TALLAHASSEE    FAIR      48  46  93 CALM      30.19R                  
PERRY          FAIR      49  48  97 CALM      30.20R                  
LIVE OAK       SUNNY     46  46 100 CALM      30.19R                  
CROSS CITY     FAIR      49  48  95 CALM      30.20R                  
LAKE CITY      FAIR      50  46  87 CALM      30.19S                  
GAINESVILLE    FAIR      57  49  74 CALM      30.22R                  
PALATKA        FAIR     N/A N/A N/A CALM      30.20R                  
MAYPORT NAS    FAIR      57  50  77 W7        30.19R                  
JACKSONVILLE   FAIR      52  49  89 CALM      30.19R                  
JAX NAS        FAIR      60  46  59 N5        30.20R                  
JAX CECIL      SUNNY     46  45  93 CALM      30.20R                  
FERNANDINA BEA FAIR      55  47  76 W5        30.19R                  
ST AUGUSTINE   FAIR      58  50  75 W8        30.20R                  
PALM COAST     SUNNY     54  50  87 CALM      30.19R                  

STATION/POSITION SKY/WX   TEMP    WIND        PRES    WAVE   SWELL
                          AIR SEA DIR/SP/G            HT/PER HT/PER
                          (F)     (DEG/KT/KT) (MB)    (FT/S) (FT/S)
SHELL POINT      NOT AVBL
KEATON BEACH               60      10/  3/  4 1022.5R
CEDAR KEY                  63     360/  5/  6 1022.4R
FERNANDINA                 58 69  280/  3/  5 1023.0R
30.7N   81.3W                 67                N/A     2/ 8
MAYPORT                    57 69  300/  7/ 10 1022.3R
31.4N   80.9W              67 67  110/  4/  4 1022.2R   2/ 8   2/ 8
ST AUGUSTINE               61 71  290/  7/  9 1022.5R

$$
FLZ040-043>046-052-053-057-058-063-144-221300-
INTERIOR CENTRAL FLORIDA
  
CITY           SKY/WX    TMP DP  RH WIND       PRES   REMARKS
OCALA          FAIR      51  47  86 CALM      30.21R                  
LEESBURG       FAIR      59  51  75 N6        30.20R                  
SANFORD        FAIR      58  52  80 NW3       30.19R                  
ORLANDO EXEC   FAIR      62  48  60 N3        30.19R                  
ORLANDO INTL   FAIR      61  52  72 CALM      30.20R                  
KISSIMMEE      FAIR      61  52  72 CALM      30.21R                  
WINTER HAVEN   FAIR      62  53  72 CALM      30.20R                  
LAKELAND       SUNNY     55  50  82 CALM      30.20R                  
BARTOW         SUNNY     55  52  88 CALM      30.19R                  
SEBRING        FAIR      57  54  89 N5        30.19R                  
OKEECHOBEE     FAIR      54  52  94 CALM      30.17R                  

$$
FLZ041-047-054-059-064-141-147-221300-
EAST CENTRAL FLORIDA
  
CITY           SKY/WX    TMP DP  RH WIND       PRES   REMARKS
ORMOND BEACH   SUNNY     54  52  94 CALM      30.19R                  
DAYTONA BEACH  FAIR      59  51  75 NW3       30.19R                  
DELAND         FAIR      55  52  88 CALM      30.19R                  
NEW SMYRNA BEA SUNNY     57  50  77 NW3       30.20R                  
JFK SPACE CTR  FAIR      58  54  86 N5        30.18R                  
TITUSVILLE     SUNNY     57  55  94 S5        30.20R                  
CAPE CANAVERAL FAIR      64  52  64 NW8       30.17R                  
PATRICK AFB    FAIR      67  54  62 NW9       30.17R                  
MELBOURNE      FAIR      61  52  72 W5        30.18R                  
VERO BEACH     FAIR      61  54  77 NW6       30.17R                  
FT PIERCE      FAIR      59  54  83 NW3       30.17R                  
STUART         MOSUNNY   64  54  68 NW6       30.17R                  

STATION/POSITION SKY/WX   TEMP    WIND        PRES    WAVE   SWELL
                          AIR SEA DIR/SP/G            HT/PER HT/PER
                          (F)     (DEG/KT/KT) (MB)    (FT/S) (FT/S)
28.5N   80.2W              70     310/ 10/ 12 1022.2R   3/ 8   2/ 8
28.9N   78.5W              72 78  360/ 10/ 14 1021.8R   4/ 8   3/ 8
TRIDENT PIER               66 75  330/  4/  7 1023.3R
28.4N   80.5W                 75                N/A     1/ 8
27.5N   80.2W                 74                N/A     2/ 8   2/14

$$
FLZ050-056-061-142-242-148-248-149-249-151-251-155-255-
160-260-221300-
WEST CENTRAL FLORIDA
  
CITY           SKY/WX    TMP DP  RH WIND       PRES   REMARKS
CRYSTAL RIVER  FAIR      50  46  87 CALM      30.20R                  
INVERNESS      FAIR      48  48 100 CALM      30.21R                  
BROOKSVILLE    FAIR      51  50  96 CALM      30.21R                  
CLEARWATER AIR FAIR      61  48  63 CALM      30.19R                  
ST PETE CLEARW FAIR      62  51  67 E5        30.19R                  
TAMPA INTL     FAIR      63  48  58 E3        30.20R                  
PLANT CITY     FAIR      55  54  94 CALM      30.22R                  
MACDILL AFB    FAIR      59  52  76 E6        30.19R                  
PETER O KNIGHT CLOUDY    61  52  72 NE6       30.20R                  
ST PETERSBURG    N/A    N/A N/A N/A MISG      30.18R                  
SARASOTA       FAIR      60  50  69 NE7       30.17R                  
VENICE         FAIR      61  50  67 NE10      30.18R                  

STATION/POSITION SKY/WX   TEMP    WIND        PRES    WAVE   SWELL
                          AIR SEA DIR/SP/G            HT/PER HT/PER
                          (F)     (DEG/KT/KT) (MB)    (FT/S) (FT/S)
27.3N   84.2W                 74                N/A     2/ 6
CLEARWATER BEACH           64 71   90/  5/  7 1022.4R
MIDDLE TAMPA BAY           66      70/ 14/ 15 1022.3R
VENICE                     61 75   40/  9/ 10 1021.7R

$$
FLZ066-069-070-075>078-162-262-165-265-221300-
SOUTHWEST FLORIDA AND KEYS
  
CITY           SKY/WX    TMP DP  RH WIND       PRES   REMARKS
PUNTA GORDA    FAIR      57  51  80 NE3       30.19R                  
FT MYERS       FAIR      61  53  75 NE7       30.17R                  
SOUTHWEST INTL FAIR      59  53  80 NE7       30.17R                  
NAPLES         FAIR      62  59  90 NE6       30.16R                  
MARCO ISLAND   PTSUNNY   60  54  80 NE6       30.17R                  
IMMOKALEE      FAIR      55  54  94 N6        30.15R                  
MARATHON         N/A     75  59  57 MISG      30.13R                  
KEY WEST NAS   FAIR      73  60  63 E6        30.13R                  
KEY WEST INTL  FAIR      72  59  63 CALM      30.13R                  

STATION/POSITION SKY/WX   TEMP    WIND        PRES    WAVE   SWELL
                          AIR SEA DIR/SP/G            HT/PER HT/PER
                          (F)     (DEG/KT/KT) (MB)    (FT/S) (FT/S)
NAPLES                     63 74   60/  5/  7 1021.0R
DRY TORTUGAS               73      70/  8/  9 1020.4R
SAND KEY                   72                 1020.3R
SOMBRERO KEY               73                 1019.6R

$$
FLZ067-068-071>074-168-172>174-221300-
SOUTHEAST FLORIDA 
  
CITY           SKY/WX    TMP DP  RH WIND       PRES   REMARKS
W PALM BEACH   FAIR      64  50  60 NW5       30.15R                  
BOCA RATON     PTSUNNY   70  55  60 NE7       30.15R                  
FT LAUDER-EXEC FAIR      72  57  59 N3        30.14R                  
FT LAUDERDALE  PTSUNNY   71  54  54 N5        30.14R                  
POMPANO BEACH  FAIR      73  53  49 E7        30.15R                  
PEMBROKE PINES FAIR      68  57  68 CALM      30.16R                  
OPA LOCKA      FAIR      70  58  65 N6        30.15R                  
MIAMI          FAIR      72  58  61 NE6       30.14R                  
WEST KENDALL   PTSUNNY   66  63  90 CALM      30.14R                  
HOMESTEAD      PTSUNNY   68  61  76 CALM      30.13R                  

STATION/POSITION SKY/WX   TEMP    WIND        PRES    WAVE   SWELL
                          AIR SEA DIR/SP/G            HT/PER HT/PER
                          (F)     (DEG/KT/KT) (MB)    (FT/S) (FT/S)
PORT EVERGLADES            73      60/  8/ 13 1020.8R
VIRGINIA KEY               73 79   20/  4/  6 1019.9R
LAKE WORTH                 73 77   70/  6/  9 1022.0R
SETTLEMENT POINT           72      30/  8/ 10 1021.5R

$$